• In Germany
  • List of Countries
  • For 7 days
  • Water Temperature
  • Satellite Maps
  • Weather Map
  • Weather Widgets
  • user-avatar
    Login

    Hourly Weather Lezhe

    Today, 25 April, Tuesday

    Time Temperature Precipitation Wind Pressure Humidity
    00:00 +8°C° 0 mm 1 mps 740 mmHg 86%
    01:00 +8°C° 0 mm 1 mps 740 mmHg 87%
    02:00 +8°C° 0 mm 1 mps 740 mmHg 87%
    03:00 +7°C° 0 mm 2 mps 740 mmHg 88%
    04:00 +7°C° 0 mm 2 mps 740 mmHg 89%
    05:00 +9°C° 0 mm 2 mps 740 mmHg 83%
    06:00 +12°C° 0 mm 2 mps 740 mmHg 77%
    07:00 +15°C° 0 mm 1 mps 740 mmHg 68%
    08:00 +16°C° 0 mm 2 mps 740 mmHg 64%
    09:00 +17°C° 0 mm 2 mps 740 mmHg 59%
    10:00 +18°C° 0 mm 2 mps 740 mmHg 54%
    11:00 +19°C° 0 mm 3 mps 740 mmHg 53%
    12:00 +19°C° 0 mm 3 mps 739 mmHg 53%
    13:00 +20°C° 0 mm 4 mps 739 mmHg 52%
    14:00 +19°C° 0 mm 3 mps 739 mmHg 56%
    15:00 +18°C° 0 mm 3 mps 739 mmHg 61%
    16:00 +18°C° 0 mm 3 mps 738 mmHg 65%
    17:00 +16°C° 0 mm 3 mps 738 mmHg 75%
    18:00 +14°C° 0 mm 2 mps 738 mmHg 84%
    19:00 +12°C° 0 mm 2 mps 738 mmHg 94%
    20:00 +10°C° 0 mm 2 mps 739 mmHg 94%
    21:00 +10°C° 0 mm 2 mps 739 mmHg 95%
    22:00 +9°C° 0 mm 2 mps 739 mmHg 96%
    23:00 +9°C° 0 mm 2 mps 739 mmHg 95%

    Tomorrow, 26 April, Wednesday

    Time Temperature Precipitation Wind Pressure Humidity
    00:00 +9°C° 0 mm 2 mps 739 mmHg 94%
    01:00 +8°C° 0 mm 2 mps 739 mmHg 93%
    02:00 +8°C° 0 mm 2 mps 739 mmHg 91%
    03:00 +8°C° 0 mm 2 mps 739 mmHg 90%
    04:00 +7°C° 0 mm 2 mps 738 mmHg 89%
    05:00 +9°C° 0 mm 2 mps 739 mmHg 82%
    06:00 +12°C° 0 mm 2 mps 739 mmHg 74%
    07:00 +14°C° 0 mm 2 mps 739 mmHg 67%
    08:00 +16°C° 0 mm 2 mps 738 mmHg 58%
    09:00 +18°C° 0 mm 2 mps 738 mmHg 50%
    10:00 +19°C° 0 mm 2 mps 738 mmHg 41%
    11:00 +20°C° 0 mm 2 mps 738 mmHg 40%
    12:00 +20°C° 0 mm 3 mps 738 mmHg 39%
    13:00 +20°C° 0 mm 3 mps 738 mmHg 38%
    14:00 +20°C° 0 mm 3 mps 738 mmHg 42%
    15:00 +19°C° 0 mm 3 mps 738 mmHg 45%
    16:00 +19°C° 0 mm 3 mps 737 mmHg 49%
    17:00 +17°C° 0 mm 2 mps 737 mmHg 60%
    18:00 +14°C° 0 mm 2 mps 737 mmHg 71%
    19:00 +12°C° 0 mm 2 mps 738 mmHg 83%
    20:00 +10°C° 0 mm 2 mps 738 mmHg 82%
    21:00 +10°C° 0 mm 2 mps 738 mmHg 82%
    22:00 +9°C° 0 mm 2 mps 739 mmHg 81%
    23:00 +9°C° 0 mm 2 mps 738 mmHg 80%

    Day after tomorrow, 27 April, Thursday

    Time Temperature Precipitation Wind Pressure Humidity
    00:00 +9°C° 0 mm 2 mps 738 mmHg 79%
    01:00 +9°C° 0 mm 2 mps 738 mmHg 77%
    02:00 +9°C° 0 mm 2 mps 738 mmHg 75%
    03:00 +9°C° 0 mm 2 mps 738 mmHg 73%
    04:00 +9°C° 0 mm 2 mps 737 mmHg 72%
    05:00 +12°C° 0 mm 2 mps 738 mmHg 65%
    06:00 +15°C° 0 mm 2 mps 738 mmHg 59%
    07:00 +18°C° 0 mm 1 mps 738 mmHg 53%
    08:00 +19°C° 0 mm 2 mps 738 mmHg 48%
    09:00 +20°C° 0 mm 2 mps 738 mmHg 42%
    10:00 +23°C° 0 mm 2 mps 738 mmHg 37%
    11:00 +23°C° 0 mm 2 mps 738 mmHg 36%
    12:00 +24°C° 0 mm 2 mps 737 mmHg 36%
    13:00 +24°C° 0 mm 2 mps 737 mmHg 35%
    14:00 +24°C° 0 mm 2 mps 737 mmHg 38%
    15:00 +23°C° 0 mm 2 mps 736 mmHg 41%
    16:00 +23°C° 0 mm 2 mps 736 mmHg 43%
    17:00 +19°C° 0 mm 2 mps 736 mmHg 54%
    18:00 +16°C° 0 mm 2 mps 736 mmHg 64%
    19:00 +14°C° 0 mm 2 mps 736 mmHg 75%
    20:00 +14°C° 0 mm 2 mps 737 mmHg 72%
    21:00 +14°C° 0 mm 2 mps 737 mmHg 69%
    22:00 +14°C° 0 mm 2 mps 737 mmHg 67%
    23:00 +14°C° 0 mm 2 mps 737 mmHg 66%

    28 April, Friday

    Time Temperature Precipitation Wind Pressure Humidity
    00:00 +13°C° 0 mm 2 mps 737 mmHg 66%
    01:00 +13°C° 0 mm 2 mps 736 mmHg 65%
    02:00 +13°C° 0 mm 2 mps 736 mmHg 66%
    03:00 +12°C° 0 mm 2 mps 736 mmHg 67%
    04:00 +12°C° 0 mm 2 mps 736 mmHg 67%
    05:00 +14°C° 0 mm 2 mps 736 mmHg 63%
    06:00 +16°C° 0 mm 2 mps 736 mmHg 58%
    07:00 +18°C° 0 mm 2 mps 736 mmHg 53%
    08:00 +20°C° 0 mm 3 mps 736 mmHg 47%
    09:00 +21°C° 0 mm 3 mps 736 mmHg 42%
    10:00 +23°C° 0 mm 4 mps 736 mmHg 36%
    11:00 +23°C° 0 mm 4 mps 736 mmHg 37%
    12:00 +23°C° 0 mm 5 mps 735 mmHg 38%
    13:00 +23°C° 0 mm 5 mps 735 mmHg 40%
    14:00 +22°C° 0.1 mm 4 mps 735 mmHg 46%
    15:00 +21°C° 0.1 mm 4 mps 735 mmHg 53%
    16:00 +20°C° 0.1 mm 3 mps 734 mmHg 59%
    17:00 +18°C° 0 mm 3 mps 734 mmHg 64%
    18:00 +17°C° 0 mm 3 mps 734 mmHg 69%
    19:00 +14°C° 0 mm 3 mps 734 mmHg 73%
    20:00 +14°C° 0 mm 3 mps 734 mmHg 72%
    21:00 +14°C° 0 mm 3 mps 735 mmHg 71%
    22:00 +13°C° 0 mm 3 mps 735 mmHg 70%
    23:00 +14°C° 0 mm 2 mps 735 mmHg 71%

    29 April, Saturday

    Time Temperature Precipitation Wind Pressure Humidity
    00:00 +14°C° 0 mm 2 mps 734 mmHg 71%
    01:00 +13°C° 0 mm 2 mps 734 mmHg 72%
    02:00 +13°C° 0 mm 2 mps 734 mmHg 73%
    03:00 +13°C° 0 mm 2 mps 734 mmHg 74%
    04:00 +13°C° 0 mm 2 mps 733 mmHg 75%
    05:00 +14°C° 0.1 mm 2 mps 734 mmHg 70%
    06:00 +16°C° 0.1 mm 2 mps 734 mmHg 65%
    07:00 +17°C° 0.1 mm 3 mps 734 mmHg 61%
    08:00 +17°C° 0.9 mm 3 mps 734 mmHg 66%
    09:00 +16°C° 0.9 mm 3 mps 734 mmHg 72%
    10:00 +16°C° 0.9 mm 3 mps 734 mmHg 78%
    11:00 +16°C° 1.6 mm 3 mps 734 mmHg 80%
    12:00 +15°C° 1.6 mm 2 mps 734 mmHg 81%
    13:00 +15°C° 1.6 mm 2 mps 734 mmHg 83%
    14:00 +15°C° 1.3 mm 2 mps 734 mmHg 82%
    15:00 +16°C° 1.3 mm 2 mps 734 mmHg 82%
    16:00 +16°C° 1.3 mm 2 mps 734 mmHg 81%
    17:00 +15°C° 0.7 mm 2 mps 734 mmHg 85%
    18:00 +14°C° 0.7 mm 2 mps 735 mmHg 89%
    19:00 +13°C° 0.7 mm 2 mps 735 mmHg 92%
    20:00 +13°C° 0.3 mm 2 mps 735 mmHg 91%
    21:00 +13°C° 0.3 mm 2 mps 735 mmHg 90%
    22:00 +13°C° 0.3 mm 2 mps 736 mmHg 90%
    23:00 +13°C° 0.1 mm 2 mps 736 mmHg 89%

    30 April, Sunday

    Time Temperature Precipitation Wind Pressure Humidity
    00:00 +13°C° 0.1 mm 2 mps 735 mmHg 89%
    01:00 +13°C° 0.1 mm 2 mps 735 mmHg 89%
    02:00 +13°C° 0 mm 2 mps 735 mmHg 89%
    03:00 +12°C° 0 mm 3 mps 735 mmHg 89%
    04:00 +12°C° 0 mm 3 mps 735 mmHg 89%
    05:00 +13°C° 0 mm 3 mps 735 mmHg 88%
    06:00 +13°C° 0 mm 3 mps 735 mmHg 86%
    07:00 +14°C° 0 mm 3 mps 735 mmHg 85%
    08:00 +16°C° 0 mm 3 mps 735 mmHg 78%
    09:00 +18°C° 0 mm 3 mps 735 mmHg 70%
    10:00 +20°C° 0 mm 3 mps 735 mmHg 63%
    11:00 +21°C° 0.1 mm 3 mps 735 mmHg 59%
    12:00 +22°C° 0.1 mm 3 mps 734 mmHg 56%
    13:00 +24°C° 0.1 mm 3 mps 734 mmHg 52%
    14:00 +22°C° 0.3 mm 3 mps 734 mmHg 55%
    15:00 +22°C° 0.3 mm 3 mps 734 mmHg 58%
    16:00 +21°C° 0.3 mm 3 mps 734 mmHg 62%
    17:00 +20°C° 0.3 mm 3 mps 734 mmHg 68%
    18:00 +18°C° 0.3 mm 2 mps 734 mmHg 75%
    19:00 +16°C° 0.3 mm 2 mps 734 mmHg 81%
    20:00 +16°C° 0.2 mm 2 mps 734 mmHg 83%
    21:00 +16°C° 0.2 mm 2 mps 734 mmHg 85%
    22:00 +16°C° 0.2 mm 2 mps 735 mmHg 87%
    23:00 +15°C° 0.1 mm 2 mps 734 mmHg 87%
    Show more